[[{"header":{"parameterUnit":"m.s-1","parameterCategory":1,"la1":30.2991,"la2":30.254,"lo1":-89.0895,"lo2":-89.0444,"dy":0.0017,"dx":0.0017,"nx":28,"ny":28,"refTime":"2025-04-17T21:00:00:Z","depth":0,"parameterNumber":2,"parameterNumberName":"U-component_of_WINDS"},"data":[0,0,0,0,0,0,0,0,0,0,0,0,0,0,0,0,0,0,0,0,0,0,0,0,0,0,0,0,0,0,0,0,0,0,0,0,0,0,0,0,0,0,0,0,0,0,0,0,0,0,0,0,0,0,0,0,0,0,-4.3414,-4.3416,0,-4.3567,-4.3569,-4.3571,-4.3606,-4.3605,-4.3604,-4.3603,-4.3755,-4.376,-4.3765,0,0,0,0,0,0,0,0,0,0,0,0,0,-4.315,-4.3155,-4.3414,-4.3416,-4.3418,-4.3567,-4.3569,-4.3571,-4.3606,-4.3605,-4.3603,-4.3602,-4.3754,-4.376,-4.3766,0,0,0,0,0,0,0,0,0,0,0,0,0,-4.328,-4.3156,-4.3414,-4.3453,-4.3459,-4.3566,-4.3569,-4.3572,-4.3606,-4.3605,-4.3603,-4.3602,-4.3752,-4.3759,-4.3767,-4.3845,0,0,-4.379,-4.3793,0,0,0,0,0,0,0,0,-4.3273,-4.329,-4.3446,-4.3451,-4.3457,-4.3566,-4.3532,-4.3663,-4.3607,-4.355,-4.3603,-4.3601,-4.3693,-4.3706,-4.3738,-4.3852,-4.3858,-4.379,-4.3795,-4.3798,-4.38,0,0,0,0,0,0,0,-4.3264,-4.3283,-4.3475,-4.3448,-4.3455,-4.3463,-4.348,-4.3557,-4.3628,-4.3555,-4.3558,-4.3576,-4.3696,-4.373,-4.3741,-4.386,-4.379,-4.3797,-4.3801,-4.3804,-4.4047,-4.4049,0,0,0,0,0,0,-4.3248,-4.3276,-4.347,-4.3479,-4.3359,-4.3469,-4.3488,-4.3532,-4.3628,-4.3641,-4.3577,-4.3577,-4.3718,-4.3733,-4.3747,-4.3844,-4.3798,-4.3805,-4.3809,-4.4045,-4.4047,-4.405,0,0,0,0,0,0,-4.3242,-4.3265,-4.3463,-4.3378,-4.3404,-4.3475,-4.3525,-4.3536,-4.357,-4.3644,-4.3657,-4.3599,-4.3717,-4.3736,-4.382,-4.385,-4.3809,-4.3815,-4.4043,-4.4046,-4.4048,-4.404,0,0,0,0,0,0,-4.3235,-4.3263,-4.3293,-4.3379,-4.3409,-4.3535,-4.3527,-4.354,-4.3584,-4.3585,-4.3668,-4.368,-4.3718,-4.3809,-4.3828,-4.386,-4.3821,-4.404,-4.4044,-4.4048,-4.4037,-4.4042,-4.4045,0,0,0,0,0,-4.3225,-4.3284,-4.3295,-4.3318,-4.3449,-4.3537,-4.3554,-4.3596,-4.3586,-4.3617,-4.3665,-4.3678,-4.3845,-4.3817,-4.3839,-4.3873,-4.4039,-4.4043,-4.4047,-4.4036,-4.4041,-4.4045,0,0,0,0,0,0,-4.3198,-4.3296,-4.3309,-4.3397,-4.3459,-4.3542,-4.3583,-4.36,-4.3665,-4.3663,-4.3712,-4.3731,-4.3812,-4.3852,-4.3819,-4.3954,-4.3941,-4.395,-4.3925,-4.3931,-4.3934,-4.3922,-4.3828,0,0,0,0,0,-4.3203,-4.3267,-4.3349,-4.3419,-4.3449,-4.3511,-4.3551,-4.3579,-4.3643,-4.3669,-4.3723,-4.3785,-4.3851,-4.3893,-4.3959,-4.4045,-4.4063,-4.4079,-4.4083,-4.4086,-4.4092,-4.4141,-4.4149,-4.4064,-4.4064,-4.4064,0,0,-4.3212,-4.3274,-4.3311,-4.3415,-4.3466,-4.353,-4.3532,-4.36,-4.3648,-4.3679,-4.3762,-4.3804,-4.3876,-4.3962,-4.4002,-4.3997,-4.412,-4.4092,-4.4093,-4.4098,-4.4146,-4.4154,-4.4161,-4.4067,-4.4066,-4.4066,0,0,-4.3262,-4.3316,-4.338,-4.3432,-4.351,-4.3551,-4.3566,-4.3648,-4.3678,-4.3762,-4.3787,-4.3845,-4.3958,-4.4009,-4.4049,-4.4122,-4.4135,-4.4142,-4.4161,-4.4208,-4.4214,-4.4221,-4.4245,-4.4254,-4.4148,-4.4148,-4.4148,0,-4.3264,-4.3363,-4.341,-4.3478,-4.3523,-4.3556,-4.3621,-4.3669,-4.3763,-4.3793,-4.3787,-4.3931,-4.3982,-4.408,-4.4098,-4.413,-4.4148,-4.4131,-4.421,-4.4217,-4.4223,-4.4247,-4.4256,-4.4148,-4.4148,-4.4148,-4.4148,0,-4.3361,-4.3429,-4.3472,-4.3564,-4.3614,-4.368,-4.3737,-4.3782,-4.3806,-4.3848,-4.3934,-4.3997,-4.4075,-4.4101,-4.4125,-4.4203,-4.4197,-4.42,-4.4187,-4.423,-4.4254,-4.4263,-4.4148,-4.4148,-4.4148,-4.4148,0,0,-4.3395,-4.3515,-4.3529,-4.3571,-4.3661,-4.3715,-4.3783,-4.3861,-4.3898,-4.3963,-4.402,-4.4117,-4.4121,-4.4167,-4.4197,-4.4239,-4.4291,-4.4237,-4.4239,-4.4243,-4.438,-4.4375,-4.4385,-4.4302,-4.4304,-4.4306,-4.4373,0,-4.3454,-4.3577,-4.3623,-4.3723,-4.3787,-4.3821,-4.388,-4.3941,-4.3983,-4.4043,-4.4088,-4.4155,-4.4156,-4.4184,-4.4227,-4.4275,-4.4319,-4.4272,-4.4354,-4.4357,-4.4333,-4.4398,-4.4393,-4.4453,-4.4383,-4.4384,-4.4386,0,-4.354,-4.3607,-4.3714,-4.3797,-4.3825,-4.3878,-4.3954,-4.4011,-4.4081,-4.4109,-4.4162,-4.419,-4.4262,-4.4247,-4.4346,-4.4313,-4.4351,-4.438,-4.4383,-4.4391,-4.4372,-4.4405,-4.4474,-4.4482,-4.4401,-4.44,-4.4398,0,-4.3552,-4.367,-4.3749,-4.3785,-4.3884,-4.392,-4.3962,-4.4031,-4.4076,-4.4143,-4.4172,-4.4246,-4.4286,-4.4343,-4.439,-4.4375,-4.4485,-4.4474,-4.4508,-4.4507,-4.4527,-4.4525,-4.4601,-4.4555,-4.4555,-4.4555,-4.4554,0,-4.3612,-4.3676,-4.3756,-4.3804,-4.3877,-4.393,-4.4,-4.4045,-4.4106,-4.4164,-4.4198,-4.4251,-4.4312,-4.4373,-4.4411,-4.4487,-4.4505,-4.4528,-4.4537,-4.4524,-4.452,-4.4547,-4.4543,-4.4557,-4.4556,-4.4556,-4.4556,0,-4.3637,-4.3693,-4.3782,-4.3869,-4.3893,-4.3942,-4.4017,-4.4065,-4.411,-4.4182,-4.4202,-4.4271,-4.4344,-4.4398,-4.4493,-4.4519,-4.46,-4.4609,-4.4576,-4.458,-4.461,-4.4606,-4.4704,-4.4719,-4.4665,-4.4665,-4.4665,0,-4.3671,-4.3721,-4.3814,-4.3856,-4.3899,-4.3965,-4.4012,-4.4066,-4.4113,-4.4198,-4.4236,-4.4313,-4.4376,-4.4492,-4.455,-4.4623,-4.4634,-4.4664,-4.4645,-4.463,-4.4632,-4.4628,-4.4633,-4.4665,-4.4665,-4.4666,-4.4666,0,-4.3724,-4.375,-4.3816,-4.3893,-4.3947,-4.401,-4.4073,-4.4105,-4.4171,-4.4222,-4.4298,-4.4348,-4.4446,-4.4521,-4.46,-4.4644,-4.4665,-4.4672,-4.4683,-4.4669,-4.4647,-4.4658,-4.4581,-4.4669,-4.4668,-4.4668,-4.4668,-4.4668,-4.3753,-4.3799,-4.3873,-4.3945,-4.3999,-4.4058,-4.4108,-4.4159,-4.4224,-4.4309,-4.4337,-4.4416,-4.4487,-4.4596,-4.464,-4.4702,-4.4701,-4.4718,-4.4722,-4.4725,-4.4724,-4.4639,-4.4717,-4.4717,-4.4717,-4.4717,-4.4717,0,-4.3807,-4.3856,-4.3923,-4.4011,-4.4068,-4.4087,-4.4158,-4.4204,-4.4274,-4.4338,-4.4401,-4.4489,-4.4563,-4.4628,-4.4705,-4.4742,-4.4754,-4.476,-4.4756,-4.4766,-4.4721,-4.4702,-4.4749,-4.4749,-4.4749,-4.4749,-4.4749,-4.4749,-4.3841,-4.392,-4.3955,-4.4062,-4.4111,-4.4189,-4.4228,-4.4283,-4.4334,-4.4432,-4.4494,-4.4536,-4.4601,-4.4683,-4.4752,-4.4769,-4.4795,-4.4798,-4.4817,-4.4773,-4.4769,-4.4765,-4.4748,-4.4804,-4.4804,-4.4857,-4.4858,-4.4858]},{"header":{"parameterUnit":"m.s-1","parameterCategory":1,"la1":30.2991,"la2":30.254,"lo1":-89.0895,"lo2":-89.0444,"dy":0.0017,"dx":0.0017,"nx":28,"ny":28,"refTime":"2025-04-17T21:00:00:Z","depth":0,"parameterNumber":3,"parameterNumberName":"V-component_of_WINDS"},"data":[0,0,0,0,0,0,0,0,0,0,0,0,0,0,0,0,0,0,0,0,0,0,0,0,0,0,0,0,0,0,0,0,0,0,0,0,0,0,0,0,0,0,0,0,0,0,0,0,0,0,0,0,0,0,0,0,0,0,3.5875,3.5876,0,3.5897,3.5897,3.5897,3.5911,3.5911,3.5911,3.5911,3.593,3.593,3.5931,0,0,0,0,0,0,0,0,0,0,0,0,0,3.5846,3.5847,3.5875,3.5876,3.5876,3.5897,3.5897,3.5897,3.5911,3.5911,3.5911,3.5911,3.593,3.593,3.5931,0,0,0,0,0,0,0,0,0,0,0,0,0,3.5862,3.5847,3.5875,3.5885,3.5886,3.5897,3.5897,3.5897,3.5911,3.5911,3.5911,3.5911,3.593,3.593,3.5931,3.5932,0,0,3.5933,3.5933,0,0,0,0,0,0,0,0,3.5861,3.5863,3.5883,3.5885,3.5886,3.5901,3.5894,3.5909,3.5911,3.5901,3.5911,3.5911,3.592,3.5922,3.5925,3.5933,3.5934,3.5933,3.5933,3.5934,3.5934,0,0,0,0,0,0,0,3.586,3.5862,3.5884,3.5884,3.5885,3.5889,3.5891,3.5897,3.591,3.5902,3.5903,3.5906,3.5921,3.5925,3.5926,3.5934,3.5933,3.5934,3.5934,3.5934,3.5948,3.5948,0,0,0,0,0,0,3.5858,3.5861,3.5883,3.5884,3.5874,3.5889,3.5892,3.5896,3.591,3.5912,3.5906,3.5906,3.5923,3.5925,3.5927,3.5931,3.5934,3.5934,3.5935,3.5948,3.5948,3.5948,0,0,0,0,0,0,3.5857,3.5859,3.5882,3.5873,3.5876,3.5889,3.5894,3.5896,3.59,3.5912,3.5915,3.5907,3.5924,3.5926,3.5932,3.5932,3.5935,3.5935,3.5948,3.5948,3.5948,3.5939,0,0,0,0,0,0,3.5856,3.5859,3.5859,3.5873,3.5877,3.5887,3.5894,3.5897,3.5902,3.5903,3.5914,3.5916,3.5924,3.5931,3.5932,3.5933,3.5936,3.5948,3.5948,3.5948,3.5939,3.5939,3.5938,0,0,0,0,0,3.5855,3.5855,3.5859,3.5862,3.5878,3.5887,3.5889,3.5898,3.5902,3.5902,3.5911,3.5916,3.5932,3.5931,3.5933,3.5934,3.5948,3.5948,3.5948,3.594,3.5939,3.5938,0,0,0,0,0,0,3.5839,3.5856,3.5862,3.5866,3.5875,3.5889,3.589,3.5897,3.5904,3.5905,3.5916,3.5918,3.5924,3.5929,3.5929,3.5938,3.5941,3.5941,3.5934,3.5933,3.5932,3.5931,3.5936,0,0,0,0,0,3.5836,3.5842,3.5857,3.586,3.5864,3.5877,3.5881,3.5888,3.5897,3.5901,3.5909,3.5918,3.5925,3.5929,3.5936,3.5941,3.5945,3.5942,3.5942,3.5941,3.5941,3.5947,3.5947,3.5948,3.5948,3.5948,0,0,3.5829,3.584,3.5843,3.5857,3.5865,3.5871,3.5879,3.5885,3.5891,3.5901,3.5908,3.5915,3.5926,3.5932,3.5935,3.5937,3.5942,3.5941,3.5941,3.5941,3.5947,3.5947,3.5947,3.5948,3.5948,3.5948,0,0,3.5821,3.583,3.5834,3.5842,3.5855,3.5864,3.5865,3.5879,3.5885,3.5893,3.5902,3.5908,3.592,3.5928,3.5933,3.5933,3.5939,3.5935,3.5931,3.5937,3.5937,3.5937,3.5938,3.5938,3.5935,3.5935,3.5935,0,3.5811,3.5822,3.5835,3.5842,3.5848,3.586,3.5865,3.5873,3.5886,3.5891,3.5893,3.5911,3.5918,3.5928,3.5928,3.5932,3.5934,3.5933,3.5936,3.5936,3.5936,3.5938,3.5938,3.5934,3.5934,3.5935,3.5935,0,3.5811,3.5819,3.582,3.5836,3.5843,3.5848,3.5862,3.5868,3.5875,3.5884,3.5893,3.5904,3.5914,3.5917,3.5923,3.5929,3.593,3.5934,3.5937,3.5935,3.5937,3.5938,3.5934,3.5934,3.5934,3.5934,0,0,3.579,3.5816,3.5816,3.5825,3.5841,3.5848,3.5855,3.5867,3.5873,3.5883,3.589,3.5901,3.5907,3.5913,3.592,3.5925,3.5927,3.5929,3.5929,3.5929,3.5936,3.5933,3.5934,3.5931,3.5931,3.5932,3.5936,0,3.5786,3.58,3.5813,3.5823,3.5831,3.5845,3.5852,3.5863,3.5872,3.5881,3.5891,3.59,3.5905,3.591,3.5915,3.5926,3.5928,3.5925,3.5939,3.5939,3.5936,3.5934,3.5931,3.5934,3.5936,3.5936,3.5936,0,3.5781,3.5793,3.5804,3.5824,3.5828,3.5833,3.5848,3.5856,3.587,3.5876,3.5886,3.5895,3.5904,3.5908,3.5922,3.5919,3.5926,3.5932,3.5933,3.5934,3.5937,3.5937,3.5935,3.5935,3.5937,3.5937,3.5937,0,3.5767,3.5786,3.5796,3.5803,3.5825,3.5829,3.5838,3.5853,3.586,3.5873,3.5878,3.5891,3.5898,3.5908,3.5921,3.5922,3.5935,3.5938,3.5941,3.5941,3.5943,3.5942,3.5942,3.5946,3.5946,3.5946,3.5946,0,3.5761,3.5767,3.5791,3.5797,3.5805,3.5821,3.5829,3.5839,3.5853,3.5862,3.5874,3.5882,3.5899,3.5909,3.5919,3.5931,3.5933,3.594,3.5942,3.5939,3.5938,3.5943,3.5943,3.5946,3.5946,3.5946,3.5946,0,3.5746,3.5762,3.5774,3.5795,3.5801,3.5806,3.5825,3.5832,3.5843,3.5855,3.5858,3.5876,3.589,3.5904,3.5921,3.5928,3.594,3.5943,3.5935,3.5937,3.594,3.594,3.5943,3.5945,3.5947,3.5947,3.5947,0,3.5741,3.5747,3.577,3.5777,3.5787,3.5799,3.5808,3.5824,3.5833,3.5852,3.5857,3.5872,3.5884,3.5905,3.592,3.5934,3.5939,3.5939,3.594,3.5938,3.594,3.594,3.5942,3.5938,3.5938,3.5938,3.5938,0,3.573,3.5739,3.5752,3.5768,3.5779,3.5792,3.5806,3.5812,3.5831,3.5841,3.5856,3.5866,3.5886,3.5901,3.5918,3.5928,3.5937,3.5938,3.5939,3.5936,3.5932,3.5936,3.5935,3.5937,3.5937,3.5937,3.5937,3.5937,3.5721,3.5728,3.5747,3.5761,3.5774,3.5788,3.5796,3.581,3.5823,3.5842,3.5851,3.5866,3.5883,3.5907,3.5918,3.593,3.5933,3.5935,3.5935,3.5936,3.5936,3.593,3.5933,3.5933,3.5933,3.5933,3.5933,0,3.5713,3.5726,3.574,3.576,3.5772,3.5781,3.5798,3.5808,3.5822,3.5837,3.5851,3.5869,3.5885,3.5902,3.5919,3.5927,3.5931,3.593,3.593,3.5933,3.5932,3.5929,3.5927,3.5927,3.5927,3.5927,3.5927,3.5927,3.571,3.5723,3.5734,3.5755,3.5768,3.5785,3.5794,3.5807,3.582,3.5841,3.5855,3.5867,3.5884,3.5903,3.5918,3.5923,3.5929,3.5928,3.5934,3.5932,3.5933,3.5933,3.5931,3.5929,3.5929,3.5934,3.5934,3.5934]}]]